Tracking 29892 objects as of 21-Nov-2024
HD Live streaming from Space Station
objects crossing your sky now

STARLINK-3330

Track STARLINK-3330 now!
10-day predictions
STARLINK-3330 is classified as:


NORAD ID: 50836
Int'l Code: 2022-001AK
Perigee: 545.9 km
Apogee: 547.9 km
Inclination: 53.2 °
Period: 95.4 minutes
Semi major axis: 6917 km
RCS: Unknown
Launch date: January 6, 2022
Source: United States (US)
Launch site: AIR FORCE EASTERN TEST RANGE (AFETR)
Your satellite tracking list
Your tracking list is empty




NASA's NSSDC Master Catalog

Two Line Element Set (TLE):
1 50836U 22001AK  24325.93534640  .00000299  00000-0  36885-4 0  9991
2 50836  53.2155 145.6645 0001458  91.0681 269.0478 15.08838152158640
Source of the keplerian elements: AFSPC